Location: La Brionne
(46.1728°N, 1.7849°E)
Time: 08:54:51
(UTC+00:00)

USA 267 - Pass Details

Date: 16 June 2021
Orbit: 1102 x 1106 km, 123.0° (Epoch: 01 August)

Event Time Altitude Azimuth Distance (km) Brightness Sun altitude
Exits shadow 22:12:27 - 104° (ESE) 3,302 5.4 -16.8°
Reaches altitude 10° 22:13:22 10° 102° (ESE) 2,958 5.2 -16.8°
Maximum altitude 22:19:43 57° 26° (NNE) 1,283 3.8 -17.3°
Drops below altitude 10° 22:26:06 10° 310° (NW) 2,969 6.5 -17.7°
Sets 22:28:37 0° 307° (NW) 3,929 7.1 -17.8°
